Location: Unnamed
(48.6007°N, 2.4808°E)
Time: 19:45:12
(UTC+02:00)

DX 1 - Pass Details

Date: 06 April 2023
Orbit: 615 x 625 km, 98.4° (Epoch: 04 June)

Event Time Altitude Azimuth Distance (km) Brightness Sun altitude
Rises 00:38:12 0° 11° (N) 2,899 ? -32.8°
Reaches altitude 10° 00:40:25 10° 8° (N) 1,989 ? -32.9°
Enters shadow 00:42:12 24° 1° (N) 1,291 ? -33.0°
